Flag for Marshall Islands Weather past 2 weeks in Majuro, Marshall Islands

Now
81 °F

Overcast.


Feels Like: 89 °F
Forecast: 82 / 86 °F
Wind: No wind

Location: Majuro Atoll

Current Time: Aug 20, 2014 at 9:57:08 PM

Latest Report: Aug 20, 2014 at 8:51 PM


Visibility: 15 mi

Pressure: 29.86 "Hg

Humidity: 86%

Dew point: 77 °F

Location of MajuroLocation

Historic Weather in Majuro — Graph

°F

Majuro temperature yesterday

Maximum temperature yesterday: 89 °F (at 11:50 AM)
Minimum temperature yesterday: 80 °F (at 10:52 PM)
Average temperature yesterday: 84 °F

Past Weeks' High & Low Weather Summary

 TemperatureHumidityPressure
High89 °F (Aug 7, 1:51 PM)93% (Aug 12, 6:50 PM)29.91 "Hg (Aug 12, 6:50 PM)
Low76 °F (Aug 13, 12:52 AM)68% (Aug 11, 11:56 AM)29.70 "Hg (Aug 7, 3:51 PM)
Average83 °F80%29.82 "Hg
* Reported Aug 5 8:50 PM — Aug 20 8:51 PM, Majuro, Weather by CustomWeather, © 2014

Note: Actual official high and low records may vary slightly from our data, if they occured in-between our weather recording intervals... More about our weather records

Advertising

Majuro weather history for previous 24 hours

 ConditionsComfort  
Time TempWeatherWind HumidityBarometerVisibility
8:51 PM
Aug 20
81 °FOvercast.No wind86%29.86 "Hg15 mi
7:50 PM80 °FOvercast.No wind91%29.85 "Hg15 mi
6:51 PM79 °FCloudy.No wind91%29.82 "Hg15 mi
5:50 PM78 °FSprinkles. Cloudy.8 mph92%29.80 "Hg8 mi
4:50 PM85 °FCloudy.8 mph79%29.78 "Hg15 mi
3:50 PM87 °FCloudy.6 mph78%29.77 "Hg15 mi
2:53 PM83 °FSprinkles. Cloudy.8 mph84%29.77 "Hg8 mi
1:56 PM89 °FMore clouds than sun.6 mph76%29.77 "Hg15 mi
11:57 AM87 °FBroken clouds.No wind80%29.83 "Hg15 mi
10:52 AM88 °FBroken clouds.No wind77%29.85 "Hg15 mi
9:50 AM86 °FBroken clouds.6 mph80%29.85 "Hg15 mi
8:51 AM84 °FBroken clouds.6 mph79%29.84 "Hg15 mi
7:51 AM85 °FBroken clouds.6 mph80%29.83 "Hg15 mi
6:51 AM83 °FPartly cloudy.6 mph83%29.80 "Hg15 mi
5:51 AM83 °FPartly cloudy.12 mph81%29.78 "Hg15 mi
4:53 AM84 °FMostly cloudy.9 mph81%29.78 "Hg15 mi
3:51 AM83 °FMostly cloudy.8 mph80%29.78 "Hg15 mi
2:52 AM83 °FOvercast.9 mph80%29.78 "Hg15 mi
1:51 AM83 °FOvercast.7 mph83%29.80 "Hg15 mi
12:53 AM83 °FOvercast.6 mph85%29.82 "Hg15 mi
11:54 PM
Aug 19
81 °FOvercast.8 mph90%29.83 "Hg15 mi
10:52 PM80 °FSprinkles. Overcast.5 mph89%29.86 "Hg10 mi
9:54 PM83 °FMostly cloudy.9 mph84%29.85 "Hg15 mi
Weather by CustomWeather, © 2014

See weather overviewHow to use our weather pages